Regional Weather Roundup
Issued by NWS

Home | Current Version | Previous Version | Graphics & Text | Print | Product List | Glossary On
Versions: 1 2 3 4 5 6 7 8 9 10 11 12 13 14 15 16 17 18 19 20 21 22 23 24 25 26 27 28 29 30 31 32 33 34 35 36 37 38 39 40 41 42 43 44 45 46 47 48 49 50
000
ASUS43 KOAX 021802
RWRNE

WEATHER ROUNDUP FOR NEBRASKA
NATIONAL WEATHER SERVICE OMAHA NE
100 PM CDT SUN AUG 02 2015

NOTES: SATELLITE DATA IS BEING USED TO AUGMENT CLOUD COVER ABOVE
       12000 FEET.
       "FAIR" INDICATES FEW OR NO CLOUDS BELOW 12,000 FEET WITH NO
       SIGNIFICANT WEATHER AND/OR OBSTRUCTIONS TO VISIBILITY.

  * THESE STATIONS DO NOT REPORT WEATHER SUCH AS RAIN...SNOW OR FOG.

NEZ001>004-019>022-054>056-021900-
NEBRASKA PANHANDLE

CITY           SKY/WX    TMP DP  RH WIND       PRES   REMARKS
SCOTTSBLUFF    SUNNY     87  62  43 NW5       30.00F
6HR MIN TEMP:  59; 6HR MAX TEMP:  87;

ALLIANCE       SUNNY     92  58  31 N6        30.00F HX  91
6HR MIN TEMP:  52; 6HR MAX TEMP:  92;

CHADRON        SUNNY     87  55  33 NE14      29.98S
6HR MIN TEMP:  61; 6HR MAX TEMP:  89;

KIMBALL        SUNNY     91  45  20 E3        30.04F
SIDNEY         SUNNY     91  53  27 S8G17     30.03F
6HR MIN TEMP:  59; 6HR MAX TEMP:  92;

$$

NEZ057>060-069>072-079>082-021900-
SOUTHWEST NEBRASKA

CITY           SKY/WX    TMP DP  RH WIND       PRES   REMARKS
NORTH PLATTE   SUNNY     93  63  36 CALM      29.93F HX  94
6HR MIN TEMP:  58; 6HR MAX TEMP:  93;

IMPERIAL       MOSUNNY   91  63  39 S9        29.97F HX  92
6HR MIN TEMP:  61; 6HR MAX TEMP:  92;

LEXINGTON      SUNNY     92  69  45 SW6       29.92F HX  97
MCCOOK         SUNNY     93  64  38 VRB6      29.93F HX  94
6HR MIN TEMP:  65; 6HR MAX TEMP:  94;

$$

NEZ005>010-023>029-035>040-094-021900-
NORTH CENTRAL NEBRASKA

CITY           SKY/WX    TMP DP  RH WIND       PRES   REMARKS
AINSWORTH      SUNNY     86  64  48 NE12      29.93R
BROKEN BOW     SUNNY     94  64  37 VRB3      29.91F HX  95
6HR MIN TEMP:  58; 6HR MAX TEMP:  94;

O`NEILL        SUNNY     86  66  50 N12       29.89S
ORD            SUNNY     91  68  46 SW6       29.86F HX  95
6HR MIN TEMP:  59; 6HR MAX TEMP:  91;

$$

NEZ041-046>049-061>064-073>077-083>087-021900-
SOUTH CENTRAL NEBRASKA

CITY           SKY/WX    TMP DP  RH WIND       PRES   REMARKS
GRAND ISLAND   SUNNY     91  73  55 SW14      29.89F HX  99
6HR MIN TEMP:  69; 6HR MAX TEMP:  91;

AURORA         SUNNY     88  75  65 W13       29.88F HX  97
HASTINGS       SUNNY     89  73  59 W9        29.90F HX  97
6HR MIN TEMP:  67; 6HR MAX TEMP:  89;

HEBRON         SUNNY     90  67  47 W14       29.89F HX  93
HOLDREGE       SUNNY     90  65  44 SW7       29.93F HX  91
KEARNEY *      SUNNY     90  70  51 SW13      29.91F HX  95
YORK           SUNNY     86  75  70 SW9       29.89S HX  95
$$

NEZ011>018-030>034-042>045-021900-
NORTHEAST NEBRASKA

CITY           SKY/WX    TMP DP  RH WIND       PRES   REMARKS
NORFOLK        SUNNY     89  68  49 W8        29.84F HX  93
6HR MIN TEMP:  65; 6HR MAX TEMP:  89;

ALBION         SUNNY     89  69  50 W6        29.86S HX  93
BLAIR          SUNNY     86  73  64 SW12      29.83F HX  93
COLUMBUS *     SUNNY     90  72  55 SW9       29.84F HX  96
FREMONT        SUNNY     90  74  59 SW8       29.84S HX  99
TEKAMAH        SUNNY     88  74  63 SW8       29.80F HX  96
6HR MIN TEMP:  70; 6HR MAX TEMP:  88;

WAYNE          SUNNY     87  69  55 NW8       29.84S HX  90
$$

NEZ050>053-065>068-078-088>093-021900-
SOUTHEAST NEBRASKA

CITY           SKY/WX    TMP DP  RH WIND       PRES   REMARKS
LINCOLN        SUNNY     93  71  48 SW15      29.85F HX 100
6HR MIN TEMP:  72; 6HR MAX TEMP:  93;

OMAHA EPPLEY   SUNNY     93  71  48 W14       29.81F HX 100
6HR MIN TEMP:  74; 6HR MAX TEMP:  93;

BEATRICE       SUNNY     89  73  58 W10       29.88S HX  96
FALLS CITY     SUNNY     88  74  63 SW17G25   29.87F HX  96
6HR MIN TEMP:  72; 6HR MAX TEMP:  88; 6HR PCP: TRACE;

NEBRASKA CITY  SUNNY     87  71  59 W12       29.87S HX  92
$$

NEZ044-045-051>053-067-021900-
OMAHA AREA

CITY           SKY/WX    TMP DP  RH WIND       PRES   REMARKS
OMAHA EPPLEY   SUNNY     93  71  48 W14       29.81F HX 100
6HR MIN TEMP:  74; 6HR MAX TEMP:  93;

BLAIR          SUNNY     86  73  64 SW12      29.83F HX  93
FREMONT        SUNNY     90  74  59 SW8       29.84S HX  99
WAHOO          FAIR      90  73  57 SW12      29.84F HX  98
$$


USA.gov is the U.S. government's official web portal to all federal, state and local government web resources and services.